星链-34772 (STARLINK-34772)

导读 | 豆包AI

STARLINK-34772是美国SpaceX公司星链星座的成员卫星,于2025年7月30日发射。星链计划旨在构建全球低轨卫星互联网,为全球偏远、网络覆盖薄弱区域提供高速宽带服务。截至2025年7月,SpaceX已累计发射超九千颗星链卫星,在轨运行近八千颗,可提供平均超200Mbps下载速度,为全球用户提供低延迟卫星互联网接入服务。

基本信息
目录编号:
65020
目录名称:
STARLINK-34772
国际标识:
2025-161F
轨道中心:
EARTH
卫星名称:
星链-34772
卫星全名:
星链-34772 (STARLINK-34772)
卫星状态:
在轨 (已飞行227 天)
发射日期:
2025-07-30 UTC
国别 :
美国 (US)
星等 :
--
轨道信息
数据来源 国际轨道数据
星历时间: 2026-03-14T03:47:26+0800
18小时前
查看轨道信息
半长轴: 6853.315km
偏心率: 0.0001287
轨道倾角: 53.158°
近地点辐角 101.303°
升交点赤经 274.944°
平近点角 258.812°
近地点: 474.295km
远地点: 476.061km
周期: 94.105分钟
每日圈数: 15.302127
详细信息
固有亮度:
5
最大亮度:
2.5
卫星平台:
Starlink V1.0
覆盖范围:
全球
运营商:
太空探索技术公司
运营商所在国:
美国
制造商(研发单位):
太空探索技术公司
制造商所在国:
美国
使用方式:
暂无
卫星简介
Starlink 计划是 SpaceX 推出的全球卫星互联网项目,通过发射低轨道卫星,为全球尤其是偏远地区提供高速、低延迟的互联网服务。自 2019 年起,Starlink 已部署数千颗卫星,旨在缩小全球数字鸿沟,推动互联网普及。该项目还为军事、航空等行业提供通信支持,带来广泛经济效益。
2D轨道图
3D轨道图
轨道高度分析图
轨道倾角分析图
轨道综合分析图
查看轨道综合分析图